TimeAST,TemperatureF,Dew PointF,Humidity,Sea Level PressureIn,VisibilityMPH,Wind Direction,Wind SpeedMPH,Gust SpeedMPH,PrecipitationIn,Events,Conditions,WindDirDegrees,DateUTC
12:00 AM,89.6,62.6,40,29.68,-9999.0,NW,9.2,-,N/A,,Clear,310,2013-09-24 21:00:00
12:30 AM,89.6,62.6,40,29.68,-9999.0,NW,10.4,-,N/A,,Clear,310,2013-09-24 21:30:00
1:00 AM,89.6,80.6,75,29.68,-9999.0,NW,9.2,-,N/A,,Clear,320,2013-09-24 22:00:00
1:30 AM,89.6,62.6,40,29.68,-9999.0,NW,9.2,-,N/A,,Clear,310,2013-09-24 22:30:00
2:00 AM,89.6,64.4,43,29.68,-9999.0,NW,9.2,-,N/A,,Clear,310,2013-09-24 23:00:00
2:30 AM,89.6,64.4,43,29.68,-9999.0,WNW,9.2,-,N/A,,Clear,300,2013-09-24 23:30:00
3:00 AM,88,65,37,29.70,7,WNW,8.1,,,,,290,2013-09-25 00:00:00
3:00 AM,87.8,66.2,49,29.68,-9999.0,WNW,8.1,-,N/A,,Clear,290,2013-09-25 00:00:00
3:30 AM,87.8,68.0,52,29.68,-9999.0,WNW,8.1,-,N/A,,Clear,300,2013-09-25 00:30:00
4:00 AM,87.8,68.0,52,29.68,-9999.0,WNW,10.4,-,N/A,,Clear,300,2013-09-25 01:00:00
4:30 AM,87.8,68.0,52,29.68,-9999.0,WNW,15.0,-,N/A,,Clear,300,2013-09-25 01:30:00
5:00 AM,87.8,68.0,52,29.71,-9999.0,NW,12.7,-,N/A,,Clear,310,2013-09-25 02:00:00
5:30 AM,87.8,68.0,52,29.71,-9999.0,WNW,13.8,-,N/A,,Clear,300,2013-09-25 02:30:00
6:00 AM,87.8,68.0,52,29.71,-9999.0,WNW,15.0,-,N/A,,Clear,300,2013-09-25 03:00:00
6:30 AM,87.8,69.8,55,29.71,-9999.0,NW,12.7,-,N/A,,Clear,310,2013-09-25 03:30:00
7:00 AM,89.6,68.0,49,29.71,-9999.0,NW,12.7,-,N/A,,Clear,310,2013-09-25 04:00:00
7:30 AM,91.4,64.4,41,29.74,-9999.0,NW,11.5,-,N/A,,Clear,320,2013-09-25 04:30:00
8:00 AM,93.2,60.8,34,29.74,-9999.0,NNW,15.0,-,N/A,,Clear,330,2013-09-25 05:00:00
9:00 AM,97,57,18,29.75,9,NNW,20.7,,,,Clear,340,2013-09-25 06:00:00
9:30 AM,98.6,59.0,27,29.74,-9999.0,North,19.6,-,N/A,,Clear,350,2013-09-25 06:30:00
10:00 AM,98.6,60.8,29,29.74,-9999.0,NNW,19.6,-,N/A,,Clear,340,2013-09-25 07:00:00
10:30 AM,100.4,55.4,22,29.74,-9999.0,NNW,21.9,-,N/A,,Clear,340,2013-09-25 07:30:00
11:00 AM,98.6,64.4,32,29.74,-9999.0,North,20.7,-,N/A,,Clear,360,2013-09-25 08:00:00
11:30 AM,100.4,62.6,29,29.71,-9999.0,North,20.7,-,N/A,,Clear,360,2013-09-25 08:30:00
12:00 PM,98.6,66.2,35,29.71,5.6,North,21.9,-,N/A,,Unknown,360,2013-09-25 09:00:00
1:00 PM,98.6,62.6,30,29.68,5.6,North,23.0,-,N/A,,Unknown,350,2013-09-25 10:00:00
1:30 PM,100.4,57.2,24,29.68,5.0,North,23.0,-,N/A,,Unknown,350,2013-09-25 10:30:00
2:00 PM,100.4,55.4,22,29.65,4.3,NNW,20.7,-,N/A,,Unknown,330,2013-09-25 11:00:00
2:30 PM,100.4,55.4,22,29.65,3.7,NNW,21.9,33.4,N/A,,Unknown,340,2013-09-25 11:30:00
3:00 PM,99,54,14,29.68,4,NNW,23.0,,,,Blowing Sand,330,2013-09-25 12:00:00
3:00 PM,98.6,53.6,22,29.65,3.7,NNW,23.0,34.5,N/A,,Unknown,330,2013-09-25 12:00:00
4:00 PM,96.8,53.6,23,29.68,3.7,NNW,17.3,-,N/A,,Unknown,330,2013-09-25 13:00:00
4:30 PM,96.8,51.8,22,29.68,5.6,NNW,20.7,-,N/A,,Unknown,330,2013-09-25 13:30:00
5:00 PM,95.0,59.0,30,29.68,-9999.0,NNW,19.6,-,N/A,,Clear,330,2013-09-25 14:00:00
6:00 PM,91.4,60.8,36,29.71,-9999.0,NW,18.4,-,N/A,,Clear,320,2013-09-25 15:00:00
7:00 PM,89.6,64.4,43,29.71,-9999.0,NW,16.1,-,N/A,,Clear,320,2013-09-25 16:00:00
8:00 PM,89.6,68.0,49,29.71,-9999.0,NNW,19.6,-,N/A,,Clear,330,2013-09-25 17:00:00
9:00 PM,89,67,38,29.73,9,NW,16.1,,,,,320,2013-09-25 18:00:00
9:00 PM,89.6,66.2,46,29.71,-9999.0,NNW,16.1,-,N/A,,Clear,330,2013-09-25 18:00:00
9:30 PM,89.6,66.2,46,29.74,-9999.0,NNW,15.0,26.5,N/A,,Clear,330,2013-09-25 18:30:00
10:00 PM,89.6,68.0,49,29.74,-9999.0,NNW,16.1,31.1,N/A,,Clear,330,2013-09-25 19:00:00
10:30 PM,89.6,68.0,49,29.71,-9999.0,NW,13.8,-,N/A,,Clear,320,2013-09-25 19:30:00
11:00 PM,89.6,66.2,46,29.71,-9999.0,NNW,15.0,-,N/A,,Clear,330,2013-09-25 20:00:00
11:30 PM,89.6,66.2,46,29.71,-9999.0,NW,16.1,-,N/A,,Clear,310,2013-09-25 20:30:00